COSMOS 1888

Satellite information

Favourite Embed

Satellite Type and Status

PAYLOADIN ORBIT

Key statistics

Satellite COSMOS 1888 at a glance.

Uptime

13904

Days in orbit

Revolutions

≈ 1.0

Per day

Orbit

OTHER

Other

Inclination

11.1

Latest

Satellite identification and parameters

Extended collection of information and parameters for COSMOS 1888.

Object identification

Identified? True

Debris? False

Object name: COSMOS 1888

International designator: 1987-084A

Object number (NORAD): 18384

Object ID (CCSDS): 18384

Country: COMMONWEALTH OF INDEPENDENT STATES (CIS)

Current information (Y/N): Y

RCS size: LARGE

Orbital parameters

Period: 1436.587 minutes

Inclination: 11.1318 deg

SMA: 42174.334 km

Apoapsis: 35814.615 km

Periapsis: 35777.782 km

RAAN: 327.5784 deg

Eccentricy: 0.00043668

Argument of periapsis: 247.1042 deg

Mean anomaly: 292.1457 deg

Mean motion: 1.00237544 rev/day

Mean motion (dot): -0.00000307 rev/day2

B* drag term: 0.0 1/REarth

Two-line elements (TLE)

Creation date: Oct. 25, 2025, 3:11 a.m.

Reference frame: TEME

Reference center: EARTH

Epoch: Oct. 24, 2025, 10:21 p.m. UTC

TLE line 0: 0 COSMOS 1888

TLE line 1: 1 18384U 87084A 25297.93168453 -.00000307 00000-0 00000-0 0 9996

TLE line 2: 2 18384 11.1318 327.5784 0004367 247.1042 292.1457 1.00237544139332

Live tracking on map

Real-time ground track for satellite COSMOS 1888.

In-orbit conjunctions

A list of the most updated potential collisions computed for object COSMOS 1888.

Target Orbit TCA Probability of collision Miss distance Type
GORIZONT 33 OTHER 2025-07-10 11:24:17 TBA 2499.0 (m) PAYLOAD
INTELSAT 33E DEB GEO 2025-03-26 12:24:38 TBA 3461.0 (m) DEBRIS

Associated space launch

Geostationary military relay satellite

COSMOS 1888 was lifted into orbit during the mission ‘Proton | Potok 4’, on board a Proton space rocket.

The launch took place on Oct. 1, 1987, 5:09 p.m. from 200/39 (200L).

For more information about the launch, click the button.

Launch to space Proton | Potok 4
Proton | Potok 4

Agency: N/A

Status: Launch Successful

Launch date: Oct. 1, 1987, 5:09 p.m. UTC

Rocket: Proton

Launch pad: 200/39 (200L)

Location: Baikonur Cosmodrome, Republic of Kazakhstan

...

Latest news about this satellite

There are no fresh news available about this satellite. Check back as we update our databases every day.


Newsletter sign-up

Weekly statistics, charts and insights to help you stay on top of the space industry.